DW5212 Weather Reports


time (UTC)temp
F
wind
direction
speed
knots
gust
knots
rain 1hr
in
rain 24hr
in
rain mn
in
humidity
%
barometer
mb
20260507005009 66 32 0.9 3.5 0.00 0.00 0.00 90 1010.3
20260507004507 66 24 0.0 0.0 0.00 0.00 0.00 90 1010.2
20260507004008 67 26 0.9 1.7 0.00 0.00 0.00 90 1010.6
20260507003508 67 28 0.9 3.5 0.00 0.00 0.00 89 1010.5
20260507003010 67 22 0.9 3.5 0.00 0.00 0.00 89 1010.4
20260507002508 68 33 1.7 4.3 0.00 0.00 0.00 88 1010.2
20260507001509 69 39 2.6 7.0 0.00 0.00 0.00 88 1009.7
20260507001010 69 20 2.6 7.0 0.00 0.00 0.00 88 1009.6
20260507000512 70 23 1.7 3.5 0.00 0.00 0.00 87 1010.0
20260507000011 71 32 2.6 5.2 0.00 0.00 0.00 87 1009.8
20260506235512 72 33 2.6 5.2 0.00 0.00 0.00 86 1009.6
20260506235007 73 22 1.7 5.2 0.00 0.00 0.00 85 1009.7
20260506234508 74 345 1.7 4.3 0.00 0.00 0.00 85 1009.6
20260506234008 76 15 0.9 4.3 0.00 0.00 0.00 86 1009.7
20260506233507 77 9 0.0 3.5 0.00 0.00 0.00 91 1009.4
20260506233008 77 233 0.0 0.0 0.00 0.00 0.00 91 1009.3
20260506232507 77 229 0.0 0.0 0.00 0.00 0.00 91 1009.3
20260506232008 77 229 0.0 0.0 0.00 0.00 0.00 90 1009.4
20260506231507 77 229 0.0 0.0 0.00 0.00 0.00 90 1009.2
20260506231007 77 229 0.0 0.0 0.00 0.00 0.00 90 1009.1
20260506230506 77 229 0.0 0.0 0.00 0.00 0.00 89 1009.0
20260506230008 77 229 0.0 0.0 0.00 0.00 0.00 89 1009.1
20260506225506 77 229 0.0 0.0 0.00 0.00 0.00 89 1008.8
20260506225009 78 229 0.0 0.0 0.00 0.00 0.00 89 1008.9
20260506224008 78 229 0.0 0.0 0.00 0.00 0.00 89 1008.8
20260506223506 78 230 0.0 0.0 0.00 0.00 0.00 89 1008.8
20260506223009 78 230 0.0 0.0 0.00 0.00 0.00 89 1008.8
20260506222007 78 226 0.0 0.0 0.00 0.00 0.00 89 1008.6
20260506221008 78 237 0.0 0.0 0.00 0.00 0.00 88 1008.8
20260506220506 78 239 0.0 0.0 0.00 0.00 0.00 88 1008.9
20260506220010 78 239 0.0 0.0 0.00 0.00 0.00 88 1009.0
20260506215007 78 242 0.0 0.0 0.00 0.00 0.00 88 1009.0
20260506214507 78 242 0.0 0.9 0.00 0.00 0.00 88 1009.1
20260506213506 79 242 0.9 1.7 0.00 0.00 0.00 87 1009.1
20260506213010 79 243 0.9 3.5 0.00 0.00 0.00 86 1009.0
20260506212507 79 236 0.9 3.5 0.00 0.00 0.00 86 1009.1
20260506211508 79 173 1.7 7.0 0.00 0.00 0.00 87 1008.9
20260506210010 79 242 0.9 2.6 0.00 0.00 0.00 86 1009.1
20260506205009 79 102 0.9 4.3 0.00 0.00 0.00 85 1009.4
20260506204509 79 165 0.9 3.5 0.00 0.00 0.00 85 1009.6
20260506203506 79 86 0.9 2.6 0.00 0.00 0.00 86 1009.2
20260506203011 79 187 1.7 7.0 0.00 0.00 0.00 85 1009.4
20260506202507 79 132 1.7 7.0 0.00 0.00 0.00 85 1009.7
20260506202009 79 213 1.7 5.2 0.00 0.00 0.00 84 1010.0
20260506201008 80 230 0.9 6.1 0.00 0.00 0.00 84 1010.0
20260506200507 80 173 0.0 0.9 0.00 0.00 0.00 84 1009.9
20260506200009 80 173 0.0 2.6 0.00 0.00 0.00 84 1009.9
20260506195507 80 173 0.0 2.6 0.00 0.00 0.00 83 1009.8
20260506195008 81 168 0.0 1.7 0.00 0.00 0.00 82 1009.8
20260506194511 81 180 0.0 1.7 0.00 0.00 0.00 82 1009.6
20260506194008 81 180 0.0 1.7 0.00 0.00 0.00 82 1009.7
20260506193506 81 219 0.0 1.7 0.00 0.00 0.00 81 1009.8
20260506193008 81 218 0.0 0.9 0.00 0.00 0.00 81 1009.9
20260506192008 81 236 0.9 2.6 0.00 0.00 0.00 81 1009.9
20260506191508 81 240 0.9 2.6 0.00 0.00 0.00 81 1009.8
20260506191008 81 157 0.9 2.6 0.00 0.00 0.00 80 1009.8
20260506190506 81 140 0.9 2.6 0.00 0.00 0.00 81 1009.9
20260506185509 81 169 0.9 2.6 0.00 0.00 0.00 82 1010.5
20260506185008 81 232 0.0 2.6 0.00 0.00 0.00 83 1010.7
20260506184008 80 167 0.9 4.3 0.00 0.00 0.00 83 1011.1
20260506183507 80 196 0.9 4.3 0.00 0.00 0.00 83 1011.3
20260506183009 80 99 0.9 4.3 0.00 0.00 0.00 83 1011.2
20260506182506 80 54 0.9 3.5 0.00 0.00 0.00 83 1011.6
20260506182007 81 202 1.7 4.3 0.00 0.00 0.00 83 1011.7
20260506181508 81 81 1.7 4.3 0.00 0.00 0.00 83 1011.7
20260506181008 81 218 0.9 4.3 0.00 0.00 0.00 83 1011.9
20260506180507 81 175 0.9 3.5 0.00 0.00 0.00 83 1012.1
20260506180010 81 220 0.9 5.2 0.00 0.00 0.00 83 1012.2
20260506175508 81 148 2.6 8.7 0.00 0.00 0.00 84 1012.1
20260506174507 80 189 0.9 7.0 0.00 0.00 0.00 84 1012.3
20260506174009 80 244 0.9 5.2 0.00 0.00 0.00 85 1012.2
20260506173507 80 198 1.7 5.2 0.00 0.00 0.00 84 1012.2
20260506173009 79 220 1.7 5.2 0.00 0.00 0.00 85 1012.3
20260506172509 79 223 1.7 5.2 0.00 0.00 0.00 86 1012.2
20260506172007 79 196 0.9 5.2 0.00 0.00 0.00 87 1012.2
20260506171509 78 172 1.7 2.6 0.00 0.00 0.00 86 1012.0
20260506171010 78 255 1.7 7.8 0.00 0.00 0.00 86 1012.1
20260506170508 78 225 1.7 7.8 0.00 0.00 0.00 85 1012.2
20260506170009 79 190 0.9 4.3 0.00 0.00 0.00 85 1012.1
20260506165006 79 221 0.9 6.1 0.00 0.00 0.00 85 1012.3
20260506164506 79 244 1.7 6.1 0.00 0.00 0.00 86 1012.3
20260506164008 79 217 1.7 4.3 0.00 0.00 0.00 86 1012.2
20260506163506 79 262 1.7 6.1 0.00 0.00 0.00 87 1012.3
20260506163010 79 134 1.7 6.1 0.00 0.00 0.00 86 1012.2
20260506162507 78 227 0.9 6.1 0.00 0.00 0.00 87 1012.2
20260506161506 78 229 1.7 5.2 0.00 0.00 0.00 87 1012.3
20260506161008 78 223 1.7 5.2 0.00 0.00 0.00 87 1012.3
20260506160506 78 53 0.9 2.6 0.00 0.00 0.00 88 1012.4
20260506160013 78 257 0.9 5.2 0.00 0.00 0.00 88 1012.4
20260506155508 78 186 1.7 6.1 0.00 0.00 0.00 88 1012.4
20260506155010 78 260 0.9 6.1 0.00 0.00 0.00 88 1012.3
20260506154511 77 182 0.9 2.6 0.00 0.00 0.00 88 1012.3
20260506154008 77 187 0.9 3.5 0.00 0.00 0.00 88 1012.2
20260506153506 77 86 0.9 3.5 0.00 0.00 0.00 87 1012.1
20260506153009 78 257 0.9 4.3 0.00 0.00 0.00 87 1012.0
20260506152507 78 229 0.9 6.1 0.00 0.00 0.00 87 1012.1
20260506152008 78 156 0.9 6.1 0.00 0.00 0.00 87 1011.9
20260506151507 78 225 0.9 5.2 0.00 0.00 0.00 87 1011.9
20260506151009 77 168 1.7 7.8 0.00 0.00 0.00 87 1011.7
20260506150506 77 238 1.7 7.8 0.00 0.00 0.00 88 1011.8
20260506150011 77 191 0.9 6.1 0.00 0.00 0.00 88 1011.7
20260506145507 77 113 0.9 3.5 0.00 0.00 0.00 89 1011.7
20260506145009 77 259 2.6 7.0 0.00 0.00 0.00 89 1011.7
20260506144510 77 232 1.7 7.8 0.00 0.00 0.00 90 1011.7
20260506144007 76 143 0.9 4.3 0.00 0.00 0.00 91 1011.7
20260506143506 76 164 0.9 3.5 0.00 0.00 0.00 91 1011.6
20260506143009 76 86 0.9 2.6 0.00 0.00 0.00 91 1011.7
20260506142008 75 149 0.9 4.3 0.00 0.00 0.00 92 1011.7
20260506141506 75 196 0.9 2.6 0.00 0.00 0.00 92 1011.7
20260506141008 75 253 0.0 1.7 0.00 0.00 0.00 92 1011.7
20260506140507 74 238 0.9 3.5 0.00 0.00 0.00 93 1011.6
20260506140009 74 200 0.0 3.5 0.00 0.00 0.00 93 1011.7
20260506135506 74 188 0.0 0.0 0.00 0.00 0.00 93 1011.6
20260506135007 74 188 0.0 0.0 0.00 0.00 0.00 93 1011.6
20260506134506 73 217 0.0 0.0 0.00 0.00 0.00 94 1011.7
20260506134008 73 161 0.0 0.0 0.00 0.00 0.00 93 1011.6
20260506133506 73 162 0.0 0.0 0.00 0.00 0.00 93 1011.7
20260506133008 73 184 0.0 1.7 0.00 0.00 0.00 93 1011.6
20260506132507 73 184 0.0 1.7 0.00 0.00 0.00 93 1011.6
20260506132007 73 194 0.0 1.7 0.00 0.00 0.00 93 1011.6
20260506131507 73 191 0.0 0.0 0.00 0.00 0.00 93 1011.5
20260506131008 73 192 0.0 0.9 0.00 0.00 0.00 93 1011.5
20260506130506 73 192 0.0 0.9 0.00 0.00 0.00 93 1011.4
20260506125506 73 192 0.0 1.7 0.00 0.00 0.00 93 1011.4
20260506125008 73 258 0.0 1.7 0.00 0.00 0.00 93 1011.4
20260506124008 73 205 0.0 1.7 0.00 0.00 0.00 93 1011.3
20260506123507 72 205 0.0 0.9 0.00 0.00 0.00 93 1011.3
20260506122506 72 223 0.9 2.6 0.00 0.00 0.00 92 1011.0
20260506121007 72 183 0.0 2.6 0.00 0.00 0.00 92 1010.8
20260506120507 72 196 0.0 0.9 0.00 0.00 0.00 92 1010.6
20260506120009 72 196 0.0 0.9 0.00 0.00 0.00 92 1010.8
20260506115507 72 219 0.0 0.0 0.00 0.00 0.00 92 1010.8
20260506115009 72 219 0.0 1.7 0.00 0.00 0.00 92 1010.7
20260506114508 72 219 0.0 1.7 0.00 0.00 0.00 92 1010.6
20260506114006 72 194 0.0 1.7 0.00 0.00 0.00 92 1010.4
20260506111006 72 249 0.0 2.6 0.00 0.00 0.00 91 1010.1
20260506110507 72 236 0.0 0.0 0.00 0.00 0.00 91 1010.1
20260506110007 72 172 0.0 0.0 0.00 0.00 0.00 91 1010.0
20260506105505 72 236 0.0 0.0 0.00 0.00 0.00 91 1010.0
20260506104506 73 236 0.0 1.7 0.00 0.00 0.00 91 1010.1
20260506104006 73 236 0.9 3.5 0.00 0.00 0.00 91 1010.1
20260506103506 73 237 0.9 3.5 0.00 0.00 0.00 91 1009.9
20260506102506 73 229 0.9 3.5 0.00 0.00 0.00 91 1009.9
20260506102008 73 223 0.9 3.5 0.00 0.00 0.00 91 1009.8
20260506101506 73 234 0.9 3.5 0.00 0.00 0.00 90 1009.7
20260506100505 73 176 0.0 2.6 0.00 0.00 0.00 90 1009.9
20260506100008 73 233 0.9 3.5 0.00 0.00 0.00 90 1009.9
20260506095507 73 232 0.9 7.8 0.00 0.00 0.00 90 1009.7
20260506095006 73 285 0.9 3.5 0.00 0.00 0.00 90 1009.6
20260506094506 73 209 0.9 2.6 0.00 0.00 0.00 90 1009.7
20260506094007 73 224 0.9 3.5 0.00 0.00 0.00 90 1009.7
20260506093505 73 224 0.9 4.3 0.00 0.00 0.00 90 1009.7
20260506093008 73 234 0.9 3.5 0.00 0.00 0.00 90 1009.7
20260506092007 73 231 0.0 3.5 0.00 0.00 0.00 90 1009.7
20260506091505 73 327 0.0 1.7 0.00 0.00 0.00 89 1009.7
20260506091007 73 167 0.9 3.5 0.00 0.00 0.00 89 1009.6
20260506090010 73 195 0.0 5.2 0.00 0.00 0.00 89 1009.7
20260506085506 73 257 0.9 3.5 0.00 0.00 0.00 89 1009.9
20260506085006 73 232 1.7 5.2 0.00 0.00 0.00 89 1010.0
20260506084506 73 259 1.7 5.2 0.00 0.00 0.00 89 1010.0
20260506084007 73 226 0.9 6.1 0.00 0.00 0.00 89 1010.0
20260506083505 73 234 0.9 6.1 0.00 0.00 0.00 89 1010.2
20260506083008 73 246 0.9 3.5 0.00 0.00 0.00 89 1010.2
20260506082506 73 188 0.9 4.3 0.00 0.00 0.00 89 1010.1
20260506082006 73 209 0.9 5.2 0.00 0.00 0.00 89 1010.1
20260506081506 73 191 1.7 4.3 0.00 0.00 0.00 89 1010.1
20260506081006 73 204 1.7 4.3 0.00 0.00 0.00 89 1010.2
20260506080505 73 246 1.7 4.3 0.00 0.00 0.00 89 1010.2
20260506073506 73 92 1.7 7.0 0.00 0.00 0.00 89 1010.1
20260506073008 73 252 1.7 5.2 0.00 0.00 0.00 89 1010.2
20260506072507 73 234 1.7 4.3 0.00 0.00 0.00 89 1010.2
20260506072007 73 202 1.7 5.2 0.00 0.00 0.00 89 1010.1
20260506071506 73 243 0.9 4.3 0.00 0.00 0.00 89 1010.1
20260506071006 73 232 1.7 4.3 0.00 0.00 0.00 89 1010.1
20260506070506 73 163 1.7 6.1 0.00 0.00 0.00 89 1010.2
20260506062506 73 169 0.9 5.2 0.00 0.00 0.00 89 1010.0
20260506061007 73 160 1.7 6.1 0.00 0.00 0.00 89 1009.8
20260506060505 73 228 1.7 7.0 0.00 0.00 0.00 88 1009.9
20260506051009 74 226 1.7 7.0 0.00 0.00 0.00 88 1009.9
20260506045008 74 209 1.7 8.7 0.00 0.00 0.00 88 1009.9
20260506043507 74 234 0.9 5.2 0.00 0.00 0.00 88 1009.8
20260506042507 74 207 1.7 8.7 0.00 0.00 0.00 87 1009.9
20260506042008 74 259 1.7 8.7 0.00 0.00 0.00 87 1009.7
20260506040014 74 189 1.7 8.7 0.00 0.00 0.00 88 1010.0
20260506035506 74 187 0.9 4.3 0.00 0.00 0.00 88 1010.0
20260506035009 74 172 0.9 3.5 0.00 0.00 0.00 88 1010.0
20260506034508 74 191 1.7 6.1 0.00 0.00 0.00 87 1010.1
20260506033508 74 236 0.9 7.0 0.00 0.00 0.00 87 1009.9
20260506033009 74 153 1.7 7.0 0.00 0.00 0.00 87 1009.6
20260506032506 74 189 1.7 7.8 0.00 0.00 0.00 87 1009.6
20260506032009 74 183 0.9 7.8 0.00 0.00 0.00 87 1009.6
20260506031507 74 303 0.9 7.8 0.00 0.00 0.00 87 1009.5
20260506031009 74 48 0.9 5.2 0.00 0.00 0.00 87 1009.3
20260506030507 74 192 1.7 5.2 0.00 0.00 0.00 87 1009.4
20260506030009 75 231 1.7 5.2 0.00 0.00 0.00 87 1009.3
20260506025506 75 260 1.7 5.2 0.00 0.00 0.00 87 1009.3
20260506025009 75 266 1.7 7.8 0.00 0.00 0.00 86 1009.3
20260506024008 75 231 1.7 4.3 0.00 0.00 0.00 86 1009.1
20260506023506 75 246 1.7 5.2 0.00 0.00 0.00 86 1008.9
20260506023009 75 119 1.7 5.2 0.00 0.00 0.00 86 1008.9
20260506022507 75 209 1.7 4.3 0.00 0.00 0.00 86 1008.8
20260506020507 75 63 2.6 9.6 0.00 0.00 0.00 85 1008.6
20260506020011 75 184 1.7 9.6 0.00 0.00 0.00 85 1008.6
20260506015507 75 240 0.9 5.2 0.00 0.00 0.00 85 1008.5
20260506015008 75 211 1.7 4.3 0.00 0.00 0.00 85 1008.4
20260506014508 75 240 1.7 6.1 0.00 0.00 0.00 85 1008.3
20260506013508 75 130 0.9 6.1 0.00 0.00 0.00 85 1008.4
20260506013010 75 133 1.7 7.0 0.00 0.00 0.00 84 1008.3
20260506012008 75 222 0.9 3.5 0.00 0.00 0.00 84 1008.3
20260506011508 75 212 0.9 3.5 0.00 0.00 0.00 84 1008.2
20260506011008 76 169 0.9 3.5 0.00 0.00 0.00 83 1008.0
20260506010007 76 295 0.9 7.0 0.00 0.00 0.00 83 1008.0